Location: Newark
(50.0306°N, 2.3272°E)
Time: 22:52:21
(UTC+00:00)

Vanguard 1 - Pass Details

Date: 18 December 2019
Orbit: 651 x 3832 km, 34.2° (Epoch: 21 January)

Event Time Altitude Azimuth Distance (km) Brightness Sun altitude
Exits shadow 03:35:06 38° 213° (SSW) 4,924 13.2 -38.7°
Maximum altitude 03:43:48 50° 171° (S) 4,452 13.2 -37.3°
Drops below altitude 10° 04:03:12 10° 105° (ESE) 6,054 14.8 -34.2°
Sets 04:07:22 0° 100° (E) 6,740 15.3 -33.5°
